Tracking 31028 objects as of 17-Jul-2025
HD Live streaming from Space Station
objects crossing your sky now

DELTA 1 DEB

Track DELTA 1 DEB now!
10-day predictions


NORAD ID: 7014
Int'l Code: 1973-086E
Perigee: 875.4 km
Apogee: 1,484.2 km
Inclination: 101.7 °
Period: 108.8 minutes
Semi major axis: 7550 km
RCS: 0.109 m2 (medium)
Launch date: November 6, 1973
Source: United States (US)
Launch site: AIR FORCE WESTERN TEST RANGE (AFWTR)

Note: This is SATELLITE DEBRIS
Your satellite tracking list
Your tracking list is empty




NASA's NSSDC Master Catalog

Two Line Element Set (TLE):
1 07014U 73086E   25197.93358655  .00000031  00000-0  13661-3 0  9998
2 07014 101.7356 219.9012 0403159 301.7421  54.4995 13.23157546491929
Source of the keplerian elements: AFSPC